Temp
-3 -2 -2 -3 -4 -3 -3 -2 -4 -3 -3 -3 -3 -3 -3 -3 -3 -2 -2 -2 -2 -1 -1 -1 -1 0 1 3 4 4 5 6 7 8 9 11 12 12 13 12 13 13 13
-4 -3 -4 -4 -4 -4 -4 -3 -3 -3 -3 -3 -5 -6 -6 -4 -4 -4 -4 -3 -3 -2 -3 -2 -1 -0 0 1 3 3 4 6 5 7 8 9 10 11 11 11 12 11 12
-4 -4 -4 -4 -5 -5 -5 -6 -6 -6 -5 -6 -6 -6 -7 -6 -6 -6 -5 -5 -5 -4 -4 -4 -3 -2 -0 -0 1 2 2 3 4 4 7 8 9 9 10 10 11 12 12
-4 -4 -5 -5 -5 -5 -6 -6 -6 -6 -6 -6 -6 -6 -7 -6 -3 -5 -6 -6 -5 -5 -5 -5 -4 -3 -3 -2 -1 -0 1 2 3 3 4 7 7 9 9 9 10 10 11
-5 -5 -5 -6 -6 -6 -6 -7 -7 -7 -7 -8 -7 -7 -8 -5 -4 -4 -7 -7 -7 -6 -4 -3 -3 -3 -3 -4 -3 -2 -1 -0 0 1 1 3 4 6 7 8 7 8 9
-5 -6 -6 -6 -6 -5 -6 -7 -8 -8 -9 -9 -8 -9 -8 -6 -4 -3 -7 -7 -7 -6 -4 -3 -2 -2 -2 -3 -4 -3 -3 -2 -2 -2 -3 -2 -0 0 2 4 4 7 8
-6 -7 -6 -5 -4 -5 -6 -7 -8 -8 -10 -10 -10 -10 -7 -5 -4 -4 -6 -8 -8 -7 -5 -4 -4 -3 -3 -2 -3 -3 -3 -4 -3 -4 -5 -5 -4 -4 -2 0 2 2 4
-7 -6 -6 -6 -6 -8 -6 -6 -8 -9 -9 -10 -9 -9 -9 -6 -5 -5 -8 -8 -7 -7 -7 -6 -5 -5 -4 -3 -3 -4 -3 -4 -4 -5 -5 -5 -5 -4 -4 -3 -1 -0 2
-6 -5 -5 -5 -6 -7 -7 -7 -8 -10 -11 -11 -11 -9 -9 -8 -7 -6 -6 -10 -8 -9 -8 -7 -6 -6 -6 -4 -4 -4 -3 -3 -4 -4 -5 -4 -4 -4 -4 -3 -2 -2 -1
-8 -7 -7 -6 -6 -7 -7 -8 -9 -11 -11 -11 -11 -11 -10 -9 -8 -7 -7 -7 -10 -10 -9 -9 -8 -8 -7 -6 -6 -6 -5 -5 -5 -4 -3 -4 -4 -4 -5 -5 -7 -6 -6
-6 -7 -7 -8 -7 -9 -9 -10 -10 -11 -11 -11 -11 -11 -10 -10 -9 -8 -8 -8 -10 -11 -10 -9 -9 -8 -8 -8 -8 -7 -8 -7 -6 -6 -6 -5 -5 -4 -4 -5 -6 -7 -7
-8 -7 -7 -8 -10 -11 -11 -11 -11 -11 -11 -11 -11 -11 -12 -11 -10 -10 -10 -10 -9 -12 -13 -13 -12 -10 -10 -9 -9 -9 -8 -7 -8 -8 -8 -8 -7 -7 -7 -6 -6 -6 -7
-7 -7 -7 -8 -9 -11 -11 -11 -10 -11 -11 -11 -11 -12 -13 -14 -13 -13 -14 -14 -14 -15 -15 -15 -14 -14 -12 -12 -11 -10 -9 -10 -11 -13 -13 -13 -12 -10 -10 -7 -6 -6 -6
-8 -9 -10 -10 -10 -10 -10 -11 -12 -12 -12 -12 -12 -13 -14 -15 -16 -16 -15 -15 -15 -15 -15 -15 -15 -15 -15 -15 -15 -15 -15 -15 -15 -15 -14 -14 -13 -12 -12 -12 -10 -9 -8
-8 -9 -9 -10 -10 -11 -10 -11 -13 -12 -13 -14 -14 -14 -15 -16 -16 -16 -16 -16 -16 -15 -15 -15 -15 -15 -15 -15 -16 -16 -16 -16 -16 -16 -15 -15 -14 -14 -14 -13 -12 -12 -11
-8 -8 -9 -9 -10 -10 -11 -12 -12 -13 -13 -14 -14 -16 -16 -16 -16 -16 -16 -16 -15 -15 -14 -15 -15 -15 -16 -16 -16 -16 -16 -17 -17 -17 -17 -17 -16 -16 -15 -14 -13 -13 -13
-8 -10 -10 -10 -11 -11 -11 -11 -11 -12 -13 -13 -14 -14 -16 -17 -17 -17 -16 -15 -15 -15 -15 -15 -15 -16 -16 -16 -16 -17 -17 -17 -18 -18 -18 -18 -17 -17 -16 -15 -15 -14 -14
-9 -10 -11 -12 -12 -12 -13 -13 -13 -13 -13 -13 -14 -15 -16 -17 -17 -17 -17 -16 -15 -15 -16 -16 -16 -16 -16 -17 -17 -18 -18 -18 -18 -19 -19 -19 -18 -18 -17 -17 -16 -16 -15
-9 -10 -12 -13 -13 -13 -13 -13 -13 -13 -13 -14 -14 -16 -17 -16 -16 -17 -17 -17 -17 -17 -17 -17 -17 -18 -18 -18 -19 -19 -19 -19 -19 -19 -19 -19 -19 -19 -18 -18 -17 -17 -16
-9 -10 -12 -13 -13 -13 -13 -13 -14 -14 -14 -14 -15 -16 -15 -16 -16 -17 -17 -18 -18 -18 -19 -19 -19 -19 -20 -20 -20 -20 -20 -20 -19 -20 -20 -20 -20 -19 -19 -19 -18 -18 -17
-12 -11 -11 -13 -13 -14 -14 -15 -15 -15 -15 -15 -16 -16 -16 -18 -18 -18 -18 -19 -20 -20 -20 -21 -21 -20 -21 -21 -22 -22 -21 -21 -21 -21 -21 -21 -21 -20 -20 -20 -19 -19 -18
-13 -13 -14 -14 -14 -14 -15 -15 -16 -16 -17 -17 -17 -18 -17 -19 -19 -19 -20 -20 -21 -21 -22 -22 -22 -22 -23 -23 -23 -23 -23 -23 -23 -23 -22 -22 -22 -21 -21 -20 -20 -20 -19
-13 -14 -14 -15 -14 -13 -14 -15 -16 -17 -18 -18 -18 -18 -19 -20 -20 -21 -21 -20 -19 -19 -19 -19 -20 -20 -21 -21 -21 -24 -24 -24 -23 -23 -24 -23 -23 -22 -21 -21 -21 -21 -20
-14 -14 -15 -14 -14 -15 -16 -16 -17 -16 -16 -19 -19 -19 -20 -21 -21 -20 -20 -18 -18 -18 -19 -19 -19 -20 -20 -21 -21 -24 -22 -22 -22 -23 -24 -24 -23 -22 -22 -22 -22 -22 -21
-14 -14 -15 -15 -14 -15 -16 -17 -17 -17 -18 -19 -19 -20 -20 -20 -20 -18 -18 -18 -18 -18 -18 -19 -19 -20 -20 -21 -23 -22 -22 -22 -22 -23 -23 -24 -24 -23 -22 -22 -22 -22 -22
-13 -13 -14 -14 -15 -16 -17 -17 -17 -17 -17 -17 -18 -18 -18 -19 -18 -17 -18 -18 -18 -18 -19 -19 -20 -20 -21 -21 -22 -22 -22 -23 -23 -23 -23 -24 -23 -23 -23 -23 -23 -22 -22
Height
1488 1486 1484 1481 1480 1477 1475 1472 1469 1465 1464 1462 1459 1455 1453 1448 1446 1443 1442 1439 1435 1432 1430 1427 1424 1421 1418 1416 1415 1415 1415 1415 1408 1406 1409 1409 1407 1406 1409 1409 1409 1410 1412
1489 1487 1485 1483 1482 1479 1477 1474 1472 1469 1465 1464 1463 1461 1457 1452 1449 1446 1443 1439 1435 1431 1429 1426 1422 1418 1415 1412 1409 1409 1406 1407 1403 1399 1400 1401 1401 1402 1401 1403 1403 1404 1404
1492 1490 1488 1486 1484 1482 1480 1477 1475 1473 1468 1469 1468 1464 1460 1453 1451 1449 1445 1440 1437 1434 1431 1428 1423 1417 1412 1409 1406 1404 1403 1401 1399 1395 1394 1395 1396 1396 1395 1395 1395 1396 1396
1491 1490 1487 1486 1484 1481 1479 1478 1476 1473 1472 1471 1469 1467 1462 1455 1451 1447 1447 1442 1439 1436 1432 1429 1423 1418 1413 1409 1405 1402 1399 1396 1394 1392 1389 1389 1388 1389 1386 1386 1384 1385 1383
1491 1489 1487 1486 1483 1482 1480 1479 1477 1476 1475 1472 1470 1468 1463 1457 1452 1448 1449 1446 1441 1437 1432 1428 1425 1421 1417 1412 1407 1402 1399 1395 1392 1389 1387 1385 1383 1382 1381 1380 1377 1377 1376
1490 1489 1487 1485 1483 1482 1481 1480 1478 1477 1475 1473 1469 1468 1462 1458 1455 1451 1449 1446 1442 1437 1432 1429 1426 1422 1418 1413 1409 1404 1398 1393 1391 1389 1389 1386 1383 1381 1377 1376 1374 1371 1367
1490 1488 1486 1484 1483 1482 1481 1479 1477 1476 1475 1472 1469 1468 1465 1459 1457 1453 1450 1448 1443 1439 1435 1431 1427 1424 1420 1415 1412 1408 1405 1401 1398 1396 1392 1389 1384 1380 1376 1372 1370 1367 1362
1488 1487 1485 1484 1484 1483 1481 1479 1478 1477 1475 1473 1470 1468 1466 1461 1460 1455 1453 1449 1445 1441 1438 1434 1430 1426 1421 1418 1415 1412 1408 1404 1400 1398 1396 1393 1388 1382 1376 1371 1365 1358 1352
1487 1486 1485 1485 1484 1483 1482 1480 1479 1479 1478 1476 1474 1470 1468 1464 1461 1456 1452 1451 1447 1443 1440 1435 1430 1428 1424 1418 1417 1414 1410 1406 1404 1401 1397 1392 1387 1382 1376 1371 1364 1355 1346
1487 1486 1486 1485 1485 1484 1483 1482 1481 1480 1479 1480 1477 1474 1472 1467 1463 1458 1453 1449 1447 1445 1440 1436 1433 1430 1425 1419 1417 1412 1408 1404 1401 1398 1395 1391 1386 1381 1376 1370 1364 1359 1353
1486 1487 1487 1487 1487 1486 1485 1485 1484 1484 1484 1482 1481 1478 1472 1468 1464 1460 1455 1452 1449 1446 1442 1439 1436 1432 1428 1423 1419 1413 1409 1405 1400 1397 1392 1387 1382 1377 1373 1368 1366 1361 1356
1486 1487 1487 1488 1488 1488 1488 1488 1487 1487 1486 1484 1481 1479 1474 1469 1466 1462 1458 1454 1451 1449 1446 1443 1439 1435 1430 1425 1422 1418 1412 1407 1401 1396 1392 1387 1381 1378 1374 1370 1367 1364 1361
1487 1488 1488 1489 1489 1491 1490 1490 1489 1488 1486 1484 1482 1480 1477 1472 1467 1463 1459 1457 1454 1452 1451 1446 1441 1437 1433 1428 1424 1419 1413 1408 1404 1400 1397 1393 1388 1383 1378 1372 1367 1362 1357
1490 1491 1491 1491 1491 1492 1492 1490 1488 1487 1487 1485 1484 1481 1478 1474 1469 1465 1462 1459 1457 1454 1452 1449 1445 1441 1437 1433 1427 1421 1417 1413 1408 1404 1400 1395 1389 1382 1377 1371 1365 1357 1353
1490 1491 1492 1492 1493 1490 1490 1489 1489 1486 1485 1485 1483 1482 1478 1475 1471 1469 1466 1463 1460 1457 1455 1452 1447 1442 1438 1434 1430 1426 1421 1416 1411 1407 1402 1395 1389 1384 1380 1373 1368 1361 1355
1490 1491 1492 1493 1493 1494 1493 1489 1489 1488 1487 1485 1483 1481 1481 1477 1475 1471 1469 1466 1463 1460 1458 1454 1450 1447 1442 1438 1433 1429 1425 1420 1415 1410 1406 1400 1394 1388 1382 1376 1372 1366 1361
1489 1489 1489 1491 1492 1492 1493 1493 1492 1489 1488 1486 1484 1482 1480 1479 1476 1473 1470 1469 1466 1463 1461 1457 1454 1451 1447 1444 1439 1435 1430 1425 1420 1414 1409 1403 1397 1390 1385 1379 1374 1369 1363
1485 1487 1489 1489 1490 1491 1491 1491 1492 1492 1492 1490 1485 1484 1481 1480 1478 1475 1471 1470 1468 1465 1463 1460 1457 1454 1450 1446 1442 1437 1432 1427 1422 1417 1412 1405 1399 1394 1388 1383 1377 1372 1366
1485 1486 1488 1489 1489 1489 1491 1491 1491 1492 1492 1491 1489 1484 1481 1481 1479 1477 1473 1471 1468 1466 1463 1461 1458 1455 1451 1447 1442 1438 1434 1429 1424 1419 1413 1408 1402 1396 1391 1386 1380 1375 1369
1485 1485 1489 1490 1490 1491 1490 1491 1491 1490 1490 1489 1488 1483 1481 1482 1480 1478 1475 1471 1468 1466 1463 1460 1458 1455 1451 1446 1441 1438 1434 1429 1424 1419 1414 1408 1403 1398 1393 1387 1382 1376 1370
1485 1486 1487 1489 1489 1489 1489 1489 1489 1489 1489 1488 1487 1482 1480 1480 1480 1477 1474 1470 1467 1464 1462 1459 1456 1453 1449 1444 1440 1437 1433 1428 1424 1419 1413 1408 1403 1398 1394 1389 1383 1378 1372
1486 1487 1488 1488 1488 1487 1488 1488 1488 1488 1488 1487 1486 1483 1479 1480 1478 1475 1472 1468 1465 1462 1460 1456 1452 1450 1446 1441 1437 1434 1431 1427 1422 1416 1412 1408 1403 1398 1394 1388 1383 1377 1372
1484 1485 1486 1487 1486 1486 1486 1486 1486 1486 1486 1485 1484 1482 1480 1478 1476 1473 1470 1466 1463 1460 1456 1453 1450 1446 1443 1439 1435 1432 1429 1423 1417 1413 1410 1406 1402 1398 1393 1388 1382 1377 1371
1483 1484 1485 1484 1484 1485 1485 1485 1484 1483 1483 1483 1481 1480 1478 1476 1474 1471 1468 1465 1462 1458 1455 1452 1449 1445 1441 1437 1433 1430 1425 1420 1415 1411 1407 1404 1401 1397 1393 1387 1382 1377 1371
1481 1482 1483 1483 1483 1483 1483 1483 1483 1482 1481 1480 1479 1478 1475 1474 1472 1469 1466 1463 1460 1457 1454 1450 1447 1443 1439 1435 1431 1427 1422 1418 1413 1409 1405 1402 1400 1397 1393 1387 1381 1375 1370
1479 1480 1480 1480 1481 1481 1481 1481 1481 1480 1479 1478 1476 1475 1473 1471 1469 1467 1464 1461 1458 1455 1452 1448 1444 1441 1436 1432 1428 1424 1419 1415 1411 1407 1403 1400 1399 1395 1391 1386 1380 1375 1369
Wind_Speed
7 8 9 10 11 12 13 13 14 14 15 15 15 17 18 17 15 14 12 12 13 14 12 12 13 15 17 18 22 23 26 26 30 31 35 34 36 27 29 31 37 37 37
7 8 10 11 11 12 13 14 14 14 15 16 18 18 18 18 16 18 17 16 17 18 17 17 17 15 14 13 14 16 20 25 27 33 36 27 30 29 27 33 36 32 35
5 6 7 9 9 10 11 12 13 14 16 15 17 18 19 18 15 18 18 19 20 21 21 24 24 21 19 17 14 14 16 17 20 24 28 28 31 34 35 36 41 39 42
4 5 6 8 9 10 10 11 12 13 13 14 15 17 18 18 17 18 17 17 17 18 19 22 26 25 25 24 21 20 19 18 18 19 18 24 26 23 22 28 32 36 42
4 5 7 8 8 9 10 11 11 12 12 13 13 16 17 19 18 17 16 17 17 18 20 21 25 23 20 23 25 26 23 21 20 20 19 19 20 25 25 27 27 28 31
5 6 6 7 7 8 9 9 10 11 12 13 14 16 19 19 15 15 16 16 18 21 23 22 22 24 24 23 23 23 27 28 26 24 23 23 22 23 25 27 31 37 38
6 6 5 5 6 7 8 8 10 11 12 13 15 15 18 19 16 14 17 16 18 21 24 25 25 26 25 24 23 23 22 21 21 23 24 25 25 26 27 29 28 30 38
6 5 6 6 7 8 8 9 10 11 13 14 16 16 18 21 19 16 16 17 18 21 23 26 26 27 27 27 24 22 21 22 22 21 19 20 20 23 24 25 28 35 39
6 6 6 6 6 7 8 9 10 11 12 14 15 18 19 22 22 22 18 16 19 20 21 25 26 26 26 26 26 24 22 20 20 18 18 18 17 20 23 23 25 27 32
8 7 7 7 7 7 8 10 10 11 12 12 14 17 19 21 21 22 23 21 20 20 21 23 26 26 27 27 27 27 27 27 26 23 21 20 22 23 24 26 27 28 30
8 7 6 7 8 8 9 10 10 11 11 12 13 15 17 19 19 20 21 22 21 20 21 22 23 23 24 25 26 28 28 25 25 26 27 27 27 28 28 28 26 24 26
8 7 7 8 8 9 9 10 12 11 11 12 13 14 17 19 19 20 20 20 19 20 21 21 22 24 24 25 26 26 26 26 26 28 29 32 33 32 31 29 25 23 18
8 7 8 9 10 9 10 10 9 11 11 12 13 14 16 19 21 23 23 23 22 19 19 22 23 24 26 27 28 28 29 31 29 29 29 30 31 30 29 29 26 24 23
9 8 8 8 9 8 8 9 10 11 11 11 12 13 14 17 20 22 23 23 23 21 21 22 24 24 26 28 29 31 32 32 30 29 29 29 31 32 32 33 34 33 30
9 8 7 7 6 7 8 10 9 12 12 11 12 11 14 17 21 20 20 24 23 24 21 21 25 28 30 32 32 32 34 33 33 31 31 32 33 33 33 33 32 34 34
10 8 8 6 6 6 4 7 11 14 15 17 14 12 11 15 18 20 19 20 24 21 19 23 26 27 29 30 32 33 33 34 34 32 32 32 33 32 33 33 33 34 34
10 9 8 7 6 6 5 5 5 13 15 17 20 18 13 13 17 19 18 17 18 19 19 20 22 24 24 24 26 27 28 29 30 31 32 32 33 31 33 34 33 35 36
12 13 9 7 6 5 5 5 5 5 6 10 16 17 14 13 15 17 17 13 15 17 17 18 20 21 22 22 24 25 26 28 30 30 31 32 33 31 33 33 33 34 35
10 8 7 6 5 5 5 4 4 4 4 5 7 10 12 13 14 15 16 15 15 16 17 17 18 19 20 21 22 24 25 27 28 30 31 31 32 31 32 32 31 32 32
8 8 9 4 5 4 4 3 3 3 4 5 7 10 11 10 10 12 13 13 13 14 15 16 17 18 19 20 22 23 24 25 26 27 29 31 31 30 31 32 32 32 32
6 6 6 5 4 3 3 3 3 4 4 4 6 12 11 10 10 10 12 13 14 14 15 16 16 17 18 19 20 21 22 23 24 25 27 29 29 31 32 31 32 30 29
6 5 4 3 2 2 3 2 2 2 3 4 4 9 11 8 8 9 11 13 14 14 14 16 16 16 18 21 21 21 21 23 23 24 26 27 27 28 32 32 32 31 31
6 5 5 3 1 0 1 0 1 1 2 4 4 6 7 7 8 9 11 13 15 17 17 18 19 20 21 23 22 19 20 23 25 25 23 26 25 26 31 33 32 32 32
6 5 5 4 3 2 1 1 2 3 2 3 4 5 6 7 8 10 12 15 17 18 18 20 20 21 23 24 23 20 24 26 26 24 22 21 24 23 28 31 31 30 30
6 6 4 3 3 2 1 2 2 2 3 3 4 5 6 7 9 11 12 15 17 19 19 20 21 21 22 23 21 24 25 24 23 22 21 20 20 22 25 28 30 29 29
6 6 5 4 3 3 3 3 3 4 4 4 5 6 7 8 9 12 13 16 18 18 19 20 21 22 22 22 22 24 24 23 22 20 19 17 19 21 25 27 27 27 27
Wind_Direction
22 25 27 31 28 27 28 31 34 35 32 30 29 29 19 18 16 10 0 351 347 346 341 330 318 309 300 284 277 277 263 261 274 278 274 266 264 270 263 267 258 255 255
26 38 35 34 31 31 26 29 33 38 39 35 27 25 19 27 37 31 26 24 19 17 14 4 356 347 336 323 305 293 281 265 278 280 273 276 269 261 264 262 264 262 254
36 44 43 40 37 35 31 30 28 28 28 24 26 20 17 21 31 34 29 32 32 30 27 20 14 8 2 356 345 325 312 299 291 289 282 277 273 275 274 271 270 272 265
48 49 50 42 38 35 34 31 31 30 28 30 25 21 17 21 32 50 23 29 30 33 36 30 27 23 15 8 5 354 344 333 320 315 308 283 275 268 281 281 280 280 274
65 60 56 48 42 42 41 35 34 31 29 31 35 25 25 22 30 44 29 24 26 29 30 33 30 35 38 26 15 9 3 0 351 345 333 322 310 290 284 282 289 277 268
91 71 63 58 50 46 45 44 42 35 30 33 37 27 29 26 27 36 37 29 28 30 29 29 31 30 29 36 33 22 12 9 9 7 360 350 339 324 310 301 293 291 290
91 75 65 63 55 49 47 46 45 41 38 37 41 36 33 39 33 30 42 27 28 27 27 25 26 27 26 29 30 29 29 25 17 12 8 5 354 345 331 318 311 297 283
99 93 82 69 57 46 38 45 47 42 45 44 44 45 39 43 41 38 51 31 35 31 27 26 26 23 21 21 22 26 28 28 28 26 15 6 3 352 344 333 321 308 295
112 98 79 66 62 56 49 50 54 52 47 42 42 41 39 35 39 38 43 36 34 28 26 26 24 21 19 18 16 18 22 26 30 28 25 21 14 8 2 348 342 339 330
120 88 69 63 62 59 56 53 54 54 50 44 37 38 36 35 33 33 33 34 30 25 22 23 21 22 19 17 16 15 15 17 16 15 16 18 18 22 23 18 8 358 357
119 119 106 74 63 64 55 54 51 48 45 43 39 29 33 32 34 35 33 32 31 23 22 21 21 20 20 20 18 18 16 12 12 12 12 11 13 14 15 21 16 8 360
126 112 98 87 75 64 61 50 43 47 40 39 35 30 21 29 32 36 34 30 26 24 19 17 18 20 21 21 20 20 15 12 13 13 12 12 10 10 9 8 11 14 11
122 103 89 81 78 72 61 60 49 37 40 38 33 29 20 16 23 26 24 21 23 25 16 13 17 16 19 19 19 18 17 17 16 12 7 6 5 5 3 2 4 2 6
124 114 105 100 90 83 64 51 54 53 42 41 32 28 23 19 19 19 21 20 20 20 18 11 12 16 13 15 14 16 14 14 16 11 3 359 359 4 4 2 1 3 1
135 127 114 99 89 67 76 86 53 53 55 47 47 26 27 20 17 15 15 18 20 29 15 12 12 14 15 11 13 14 10 10 11 9 3 359 358 1 360 359 1 358 1
137 133 130 119 112 107 67 10 24 23 26 24 28 46 27 18 15 14 14 13 17 22 15 14 12 12 11 8 7 5 7 4 5 7 2 360 358 0 358 355 359 357 356
145 137 127 117 112 102 92 89 12 0 5 5 359 0 17 12 11 11 18 21 6 18 17 13 10 8 7 5 3 2 1 360 357 5 358 358 356 359 359 353 356 353 352
157 149 130 122 110 99 88 68 45 31 17 353 343 346 4 12 7 3 14 20 13 12 13 8 4 2 1 359 357 356 356 354 355 359 356 357 356 0 355 350 353 350 350
153 144 127 121 117 97 76 54 44 23 8 0 346 348 4 21 359 357 7 16 12 7 6 3 359 355 354 353 351 349 351 350 349 352 352 354 355 359 351 348 349 346 347
149 140 126 117 96 91 69 57 34 28 13 6 352 350 4 24 3 1 2 5 8 5 0 358 353 349 348 347 347 345 345 345 344 345 346 346 352 357 346 348 348 343 342
140 143 128 112 112 96 78 57 37 21 14 14 356 335 356 31 359 359 359 358 360 358 353 350 348 346 343 342 342 340 339 339 338 337 339 340 346 349 342 346 343 342 341
137 131 133 137 119 133 88 56 39 21 6 7 358 334 6 9 0 358 354 353 354 352 349 346 347 344 342 341 340 339 336 332 329 331 335 335 339 343 339 343 340 341 339
152 153 144 160 193 108 105 19 300 5 0 1 357 351 356 355 354 353 351 349 351 351 349 348 348 343 340 341 341 339 332 331 328 330 330 328 333 336 336 337 337 337 337
167 165 175 197 193 192 212 276 327 324 329 354 352 351 346 350 347 347 346 348 351 352 350 347 346 343 341 340 339 335 333 333 331 330 326 330 325 332 331 332 333 333 334
176 182 194 205 212 229 236 248 278 297 317 330 334 337 337 343 341 343 344 349 352 351 348 345 344 341 340 339 338 336 333 333 333 331 328 329 328 329 328 330 329 332 332
194 201 213 217 220 221 226 241 264 283 296 308 320 329 335 335 339 342 346 350 349 346 346 343 342 341 340 340 337 335 335 336 336 336 333 336 329 326 329 327 331 331 331